Location: Izdebno
(52.6670°N, 16.2170°E)
Time: 05:18:54
(UTC+02:00)

A-11 Canister half - Pass Details

Date: 09 February 2023
Orbit: 1526 x 1682 km, 47.3° (Epoch: 25 March)

Event Time Altitude Azimuth Distance (km) Brightness Sun altitude
Rises 09:54:35 0° 284° (WNW) 4,689 11.1 16.6°
Reaches altitude 10° 09:57:51 10° 276° (W) 3,715 10.7 16.9°
Maximum altitude 10:06:11 38° 213° (SSW) 2,229 10.4 17.6°
Drops below altitude 10° 10:14:42 10° 150° (SSE) 3,796 13.7 18.2°
Sets 10:18:07 0° 143° (SE) 4,803 13.2 18.5°
